DECAYED

DMSP 5D-2 F13 DEB, 42317 (Decayed)

Orbit data source: Space-Track

DMSP 5D-2 F13 DEB, 42317 was space debris in SSO originally from a launch on Fri, 24 Mar 1995 UTC launched from the Air Force Western Test Range (AFWTR). Debris objects in space refer to the collection of defunct objects orbiting the Earth. Examples of debris include non-operational satellites, rocket bodies, and fragments generated from explosions, collisions, or faulty payload assembly.

Not visible in the next 10 days
Identifier
42317, 1995-015JK
Orbit
Decayed
Country
Flag of USUS
Related business
Manufacturer
Unknown
Mission
Decayed spacecraft
Bus & Motor
Unknown
Mass
Unknown
Launch date (UTC)
1995-03-24 (31 years ago)
Launch vehicle
Unknown
Launch site
Air Force Western Test Range (AFWTR)
Object type
Payload
Rocket body
Debris
Shape & HBR
Unknown shape, 0.1 m
Radar Cross Section
Medium (>0.1 m² and <1 m²)

Expand to show TLE details & history
Last TLE update: 1 year ago

TLE from 1 year ago
0 DMSP 5D-2 F13 DEB
1 42317U 95015JK  25052.80216932  .00818418  00000-0  27379-1 0  9991
2 42317  98.7137 156.1729 0013719 286.5074  73.4654 15.28328947498951
Epoch: 2025-02-21T19:15Z
TLE epoch observation values (Epoch: 2025-02-21T19:15:07.429Z)
Latitude
-0.00002°
Longitude
75.43371°
Altitude
481.202 km
Speed
7.626 km/s
True Right ascension
10h 24m 41s
True Declination
0° 00' 00"
Sunlit
Object was in full shadow at epoch
Visualization orbit readout
Latitude
Unknown
Longitude
Unknown
Altitude
Unknown
Speed
Unknown
Apparent Right ascension
Unknown
Apparent Declination
Unknown
Sunlit
N/A
Visualization observer readout
Local Sidereal Time
16:35:32
Azimuth
Unknown
Elevation
Unknown
Doppler factor
Unknown
Orbital elements
Apogee altitude
487.229 km
Perigee altitude
468.417 km
Semi-major axis
6,855.96 km
Eccentricity
0.00137
Inclination
98.7137°
RAAN
156.1729°
Arg. of periapsis
286.5074°
True anomaly
73.61618°
Mean anomaly
73.4654°
Eccentric anomaly
73.54078°
Mean motion
3.82332 °/min
Orbital period
94.16 mins
BSTAR
0.027379
Loading maneuver chart data...
Computing Atmospheric mass density...

Documentation

Showing up to 5 results
|